Regional Weather Roundup
Issued by NWS San Diego, CA

Home | Current Version | Previous Version | Text Only | Print | Product List | Glossary On
Versions: 1 2 3 4 5 6 7 8 9 10 11 12 13 14 15 16 17 18 19 20 21 22 23 24 25 26 27 28 29 30 31 32 33 34 35 36 37 38 39 40 41 42 43 44 45 46 47 48 49 50
000
ASUS46 KSGX 291610
RWRSGX

SAN DIEGO HOURLY WEATHER ROUNDUP
NATIONAL WEATHER SERVICE SAN DIEGO CA
900 AM PDT FRI AUG 29 2014

NOTE: "FAIR" INDICATES FEW OR NO CLOUDS BELOW 12,000 FEET WITH NO
SIGNIFICANT WEATHER AND/OR OBSTRUCTIONS TO VISIBILITY.

CAZ042-043-060-061-PZZ750-775-291700-

GREATER SAN DIEGO AREA

CITY           SKY/WX    TMP DP  RH WIND       PRES   REMARKS
LINDBERGH FLD  MOSUNNY   75  65  70 CALM      29.90S
POINT LOMA       N/A     73  66  78 NW9         N/A
NATIONAL CITY    N/A     74  69  83 CALM      29.90S
CHULA VISTA      N/A     74  69  85 CALM      29.83S
IMPERIAL BEACH PTSUNNY   73  67  81 W6        29.90R
BROWN FIELD    MOSUNNY   72  66  81 VRB3      29.90S
MIRAMAR MCAS   MOSUNNY   74  63  68 VRB3      29.90S
MONTGOMERY FLD MOSUNNY   75  65  70 CALM      29.90S

$$

NORTH SAN DIEGO COUNTY

CITY           SKY/WX    TMP DP  RH WIND       PRES   REMARKS
CAMP PENDLETON SUNNY     73  57  57 CALM      29.89S
OCEANSIDE AP   SUNNY     74  59  59 CALM      29.88S
OCEANSIDE HBR    N/A     70  62  75 S3        29.91S
VISTA            N/A     71  65  80 CALM      29.86F
CARLSBAD       SUNNY     72  63  73 CALM      29.89R
DEL MAR          N/A     70  68  94 CALM      29.92R
LA JOLLA SCRIP   N/A     70  68  93 NW2       29.87R
FALLBROOK        N/A     74  65  75 CALM      29.88F
ESCONDIDO        N/A     79  57  46 CALM      29.89S
SAN MARCOS       N/A     73  62  68 CALM      29.86S

$$

EAST SAN DIEGO COUNTY

CITY           SKY/WX    TMP DP  RH WIND       PRES   REMARKS
RAMONA         SUNNY     81  48  31 CALM      29.92F
LA MESA          N/A     73  66  77 CALM      29.83R
JAMUL            N/A     77  61  58 W2        29.86S
DESCANSO N       N/A     84  47  26 CALM      29.75F
MT. LAGUNA OBS   N/A     78  35  21 NW3       29.77S
CAMPO            N/A     80  47  31 CALM      29.95F

$$

ORANGE COUNTY AND THE LOS ANGELES BASIN

CITY           SKY/WX    TMP DP  RH WIND       PRES   REMARKS
JOHN WAYNE AP  MOSUNNY   75  62  64 CALM      29.88S
LAGUNA BEACH     N/A     68  65  90 S6        29.84F
LAKE FOREST FR   N/A     70  52  51 CALM      29.77F
SANTA ANA        N/A     69  66  90 CALM      29.83F
HUNTINGTON BCH   N/A     73  67  82 CALM      29.91R
LOS ALAMITOS   SUNNY     73  63  71 CALM      29.88F
FULLERTON      SUNNY     75  59  57 CALM      29.87F
LONG BEACH     SUNNY     74  62  66 CALM      29.88S
L.A. AP        MOSUNNY   72  63  73 SW5       29.89S
L.A. DOWNTOWN  SUNNY     74  62  66 CALM      29.87F

$$

THE INLAND EMPIRE

CITY           SKY/WX    TMP DP  RH WIND       PRES   REMARKS
CORONA         SUNNY     75  53  46 VRB3      29.90S
CHINO          MOSUNNY   76  52  43 CALM      29.90F
ONTARIO        MOSUNNY   79  46  31 CALM      29.90S
SAN BERNARDINO SUNNY     77  45  31 CALM      29.91F
RIVERSIDE AP   SUNNY     76  49  38 CALM      29.90F
RIV CYN CREST    N/A     76  60  57 CALM      29.87S
MORENO VALLEY    N/A     83  55  38 CALM      29.11F
MARCH ARB      SUNNY     79  50  36 E3        29.92F
HORSETHIEF CYN   N/A     79  48  32 CALM      29.87F
PERRIS           N/A     78  55  44 CALM      29.89S
MENIFEE          N/A     77  56  48 NE1       29.97S
HEMET EAST       N/A     77  49  37 CALM      29.85S
FRENCH VALLEY  FAIR      77  50  38 CALM      29.92S
TEMECULA         N/A     72  56  58 CALM      29.87F

$$

SAN BERNARDINO AND RIVERSIDE COUNTY MOUNTAINS

CITY           SKY/WX    TMP DP  RH WIND       PRES   REMARKS
BIG BEAR AP    SUNNY     66  41  39 W3        30.27F
ANGELUS OAKS     N/A     69  37  30 CALM      29.78S
PINE COVE        N/A     72  35  25 NW2       29.78S

$$

SOUTHERN DESERT INCLUDING THE COACHELLA VALLEY

CITY           SKY/WX    TMP DP  RH WIND       PRES   REMARKS
PALM SPRINGS   SUNNY     93  50  23 CALM      29.81S
THOUSAND PALMS   N/A     96  43  15 W5        29.74F
PALM DESERT      N/A     93  55  27 CALM        N/A
THERMAL        SUNNY     97  50  20 NW5       29.74S
BLYTHE         SUNNY     90  44  20 CALM      29.80S
IMPERIAL AP    SUNNY     95  53  24 CALM      29.76R
EL CENTRO NAS  SUNNY     94  49  21 W3        29.76R
YUMA AZ        SUNNY     95  46  18 CALM      29.77S
MEXICALI       SUNNY     93  50  22 NW6       29.77

$$

UPPER DESERT

CITY           SKY/WX    TMP DP  RH WIND       PRES   REMARKS
VICTORVILLE AP SUNNY     81  43  26 CALM      29.99S
HESPERIA         N/A     82  48  29 W2        29.93F
APPLE VALLEY     N/A     80  44  27 CALM      30.04F
PALMDALE       SUNNY     81  44  27 NE5       29.97S
LANCASTER      SUNNY     78  42  27 CALM      29.96S
EDWARDS AFB    MOSUNNY   76  40  26 N3        29.95S
DAGGETT        SUNNY     84  41  21 W9        29.93S
29 PALMS N     SUNNY     85  43  22 NW5       29.99F
NEEDLES        SUNNY     90  39  16 NE5       29.85R

$$

REGIONAL REPORTS

CITY           SKY/WX    TMP DP  RH WIND       PRES   REMARKS
SANTA BARBARA  SUNNY     69  61  75 SE8       29.88S
SANDBERG       SUNNY     76  35  22 N17       30.11R
MT. WILSON       N/A     81  16   9 MISG        N/A
LAS VEGAS NV   SUNNY     89  35  14 S5        29.91R
PHOENIX AZ     SUNNY     94  46  19 E8        29.84R
TIJUANA        MOSUNNY   72  64  78 W5        29.92S FOG
ENSENADA NW      N/A     73  32  22 SW1       29.86R

$$

OFFSHORE ISLANDS

CITY           SKY/WX    TMP DP  RH WIND       PRES   REMARKS
CATALINA ARPT  SUNNY     72  58  61 SE6       29.94R
SAN CLEMENTE I PTSUNNY   68  61  78 W15       29.92S
SAN NICOLAS IS PTSUNNY  N/A N/A N/A W20G30    29.90S

$$

MARINE AND OFFSHORE BUOY REPORTS

STATION/POSITION SKY/WX   TEMP    WIND        PRES    SWELL
                          AIR SEA DIR/SP/G            HT/PER/DIR
                          (F)     (DEG/KT/KT) (MB)    (FT/S/D)
TANNER BANKS               65 69  320/ 16/ 19 1013.2S   5/180/10
S CLEMENTE BASIN           68 71  290/ 14/ 16 1012.2R   5/200/10
SAN NICOLAS IS.               66                N/A     3/190/11
SO. S. ROSA ISLA           63 67  320/ 19/ 25 1012.1S   3/10
W. S. BARBARA CH           60 62  330/ 21/ 25 1011.6S   3/210/11
M. S. BARBARA CH           65     350/  6     1011.8R
S. MONICA BASIN            66 71  340/ 10/ 12 1011.6S   5/180/10
S PEDRO CHANNEL               72                N/A     2/160/11
DANA POINT                    69                N/A     3/190/11
CMP PENDLETON NS              73                N/A     3/220/11
OCEANSIDE OFFSHR              74                N/A     2/200/13
TORREY PINES OTR              74                N/A     3/210/11
LA JOLLA 1                 73 68   40/  2/  3 1012.4R
MISSION BAY BUOY              74                N/A     3/190/11
SAN DIEGO BAY                 74              1012.8S
POINT LOMA SOUTH              74                N/A     3/210/11

$$



USA.gov is the U.S. government's official web portal to all federal, state and local government web resources and services.